Hourly Data Report for June 16, 2020

BORDEN AWOS
ONTARIO
Current Station Operator: DND

44°16'20.000" N
79°54'42.000" W
222.50 m
611B002
71534
YBN

Download Data

Hourly Data (June 2020)
Hourly Data Report for June 16, 2020
TIME
LST
Temp Definition
°C
Dew Point Definition
°C
Rel Hum Definition
%
Precip. Amount Definition
mm

Wind Dir Definition
10's deg

Wind Spd Definition
km/h
Visibility Definition
km
Stn Press Definition
kPa
Hmdx Definition


Wind Chill Definition


Weather Definition


00:00 5.6 5.2 97     0 14.5 100.27     LegendNANA
01:00 5.7 4.5 92     0 14.5 100.28     LegendNANA
02:00 5.1 4.6 97     0 14.5 100.28     LegendNANA
03:00 4.0 3.5 97     0 14.5 100.27     LegendNANA
04:00 3.0 2.7 98     0 14.5 100.30     LegendNANA
05:00 3.7 3.4 98     0 14.5 100.34     LegendNANA
06:00 8.2 7.4 95     0 14.5 100.35     LegendNANA
07:00 13.0 8.4 74   22 4 14.5 100.37     LegendNANA
08:00 18.5 8.1 51     0 14.5 100.37     LegendNANA
09:00 20.4 7.1 42   12 6 14.5 100.35     LegendNANA
10:00 21.6 7.5 40   11 9 14.5 100.32     LegendNANA
11:00 22.2 7.4 39   13 11 14.5 100.28     LegendNANA
12:00 23.7 7.7 36   15 15 14.5 100.23     LegendNANA
13:00 24.1 7.8 35   13 9 14.5 100.16     LegendNANA
14:00 24.4 6.3 31   20 4 14.5 100.08     LegendNANA
15:00 25.1 7.8 33   14 11 14.5 100.04 25   LegendNANA
16:00 24.9 7.3 33   13 13 14.5 99.99 25   LegendNANA
17:00 24.9 7.1 32   LegendMM LegendMM 14.5 99.93 25   LegendNANA
18:00 24.5 7.4 34   14 7 14.5 99.89 25   LegendNANA
19:00 22.9 7.8 38   15 9 14.5 99.85     LegendNANA
20:00 18.1 9.1 56   34 4 14.5 99.82     LegendNANA
21:00 15.3 9.2 67     0 14.5 99.89     LegendNANA
22:00 11.6 8.8 83   14 4 14.5 99.90     LegendNANA
23:00 9.3 8.2 93     0 14.5 99.86     LegendNANA

Notes on Data Quality.

Legend

  • E = Estimated
  • M = Missing
  • NA = Not Available*
  • [empty] = Indicates an unobserved value
Date modified: